World > North America > United States > Ohio

Cherry Grove, Ohio Regional Weather

Lat: 39.08N, Lon: 84.32W
Wx Zone: OHZ078
Warning FLW WEATHER ALERT - (More Info. Click Here) Warning
Feedback

Cherry Grove, OH Regional Weather

Expires:201907220900;;446272
ASUS41 KCLE 220812
RWRCLE
OHIO REGIONAL WEATHER ROUNDUP
NATIONAL WEATHER SERVICE WILMINGTON, OH
400 AM EDT MON JUL 22 2019

NOTE: "FAIR" INDICATES FEW OR NO CLOUDS BELOW 12,000 FEET WITH NO
SIGNIFICANT WEATHER AND/OR OBSTRUCTIONS TO VISIBILITY.


OHZ042-051>053-060>062-070>072-077>081-220900-
  SOUTHWEST OHIO
  
CITY           SKY/WX    TMP DP  RH WIND       PRES   REMARKS
CINC-COVINGTON CLOUDY    72  70  93 W3        29.89F                  
CINC-LUNKEN    FAIR      73  71  93 CALM      29.89F                  
HAMILTON       NOT AVBL                                               
DAYTON         CLOUDY    72  71  97 W7        29.89F                  
WRIGHT-PAT AFB CLOUDY    72  71  96 W5        29.88S                  
DAYTON GENERAL CLOUDY    74  71  91 W5        29.88F                  
WILMINGTON     MOCLDY    73  72  96 W10       29.89S                  
$$


SKY/WX - Weather  TMP - Temperature  DP - Dew Point  RH - Relative Humidity
WIND - Wind Direction/Speed PRES - Barometric Pressure VSB - Visibility
WCI - Wind Chill Index E13G22 Wind - East Wind 13 mph/Gusts of 22 mph